When you browse on this site, cookies collect data to enhance your experience and personalize the content and advertising you see.
Visit our Privacy Policy to learn more. By continuing to use the site, you agree to this use of cookies and data.
  • In Sweden
  • List of Countries
  • For 7 days
  • Water Temperature
  • Weather Map
  • Weather Widgets
  • user-avatar
    Login

    Hourly Weather Patna

    Today, 28 May, Thursday

    Time Temperature Precipitation Wind Pressure Humidity
    00:00 +30°C° 0 mm 6 mps 746 mmHg 67%
    01:00 +30°C° 0 mm 6 mps 746 mmHg 69%
    02:00 +29°C° 0 mm 6 mps 745 mmHg 71%
    03:00 +29°C° 0 mm 7 mps 745 mmHg 74%
    04:00 +29°C° 0 mm 7 mps 745 mmHg 75%
    05:00 +29°C° 0 mm 6 mps 745 mmHg 76%
    06:00 +28°C° 0 mm 4 mps 746 mmHg 75%
    07:00 +29°C° 0.3 mm 5 mps 746 mmHg 71%
    08:00 +30°C° 0.3 mm 6 mps 747 mmHg 66%
    09:00 +32°C° 0.3 mm 7 mps 747 mmHg 62%
    10:00 +34°C° 0.1 mm 7 mps 747 mmHg 56%
    11:00 +36°C° 0.1 mm 6 mps 747 mmHg 51%
    12:00 +39°C° 0 mm 8 mps 747 mmHg 47%
    13:00 +40°C° 0 mm 7 mps 746 mmHg 41%
    14:00 +42°C° 0 mm 6 mps 745 mmHg 35%
    15:00 +45°C° 0 mm 5 mps 744 mmHg 29%
    16:00 +43°C° 0 mm 5 mps 744 mmHg 31%
    17:00 +42°C° 0 mm 6 mps 743 mmHg 32%
    18:00 +43°C° 0 mm 7 mps 743 mmHg 34%
    19:00 +40°C° 0.1 mm 7 mps 744 mmHg 38%
    20:00 +38°C° 0.1 mm 6 mps 745 mmHg 42%
    21:00 +36°C° 0.1 mm 6 mps 746 mmHg 47%
    22:00 +35°C° 0 mm 7 mps 746 mmHg 50%
    23:00 +34°C° 0 mm 7 mps 746 mmHg 53%

    Tomorrow, 29 May, Friday

    Time Temperature Precipitation Wind Pressure Humidity
    00:00 +34°C° 0 mm 7 mps 746 mmHg 56%
    01:00 +33°C° 0.1 mm 7 mps 746 mmHg 58%
    02:00 +32°C° 0.1 mm 7 mps 746 mmHg 60%
    03:00 +32°C° 0.1 mm 7 mps 745 mmHg 62%
    04:00 +30°C° 0 mm 7 mps 745 mmHg 63%
    05:00 +30°C° 0 mm 7 mps 746 mmHg 65%
    06:00 +30°C° 0 mm 7 mps 746 mmHg 67%
    07:00 +32°C° 0 mm 7 mps 746 mmHg 62%
    08:00 +33°C° 0 mm 7 mps 747 mmHg 58%
    09:00 +34°C° 0 mm 7 mps 747 mmHg 54%
    10:00 +36°C° 0 mm 7 mps 747 mmHg 47%
    11:00 +40°C° 0 mm 7 mps 747 mmHg 39%
    12:00 +43°C° 0 mm 7 mps 746 mmHg 32%
    13:00 +44°C° 0 mm 6 mps 746 mmHg 29%
    14:00 +45°C° 0 mm 6 mps 745 mmHg 26%
    15:00 +46°C° 0 mm 6 mps 744 mmHg 23%
    16:00 +42°C° 0.3 mm 6 mps 744 mmHg 32%
    17:00 +40°C° 0.3 mm 7 mps 743 mmHg 40%
    18:00 +37°C° 0.3 mm 8 mps 743 mmHg 48%
    19:00 +35°C° 0.1 mm 7 mps 744 mmHg 48%
    20:00 +35°C° 0.1 mm 5 mps 745 mmHg 48%
    21:00 +34°C° 0.1 mm 3 mps 745 mmHg 48%
    22:00 +34°C° 0 mm 4 mps 746 mmHg 49%
    23:00 +34°C° 0 mm 4 mps 746 mmHg 50%

    Day after tomorrow, 30 May, Saturday

    Time Temperature Precipitation Wind Pressure Humidity
    00:00 +35°C° 0 mm 5 mps 746 mmHg 51%
    01:00 +34°C° 0.2 mm 6 mps 746 mmHg 54%
    02:00 +33°C° 0.2 mm 6 mps 746 mmHg 58%
    03:00 +32°C° 0.2 mm 7 mps 746 mmHg 62%
    04:00 +30°C° 0.1 mm 7 mps 746 mmHg 66%
    05:00 +31°C° 0.1 mm 8 mps 747 mmHg 70%
    06:00 +29°C° 0.1 mm 8 mps 747 mmHg 74%
    07:00 +31°C° 0 mm 8 mps 747 mmHg 68%
    08:00 +33°C° 0 mm 7 mps 748 mmHg 63%
    09:00 +34°C° 0 mm 7 mps 749 mmHg 58%
    10:00 +36°C° 0 mm 7 mps 749 mmHg 52%
    11:00 +39°C° 0 mm 7 mps 749 mmHg 46%
    12:00 +40°C° 0 mm 6 mps 748 mmHg 40%
    13:00 +41°C° 0 mm 6 mps 748 mmHg 42%
    14:00 +41°C° 0 mm 5 mps 747 mmHg 39%
    15:00 +42°C° 0 mm 5 mps 746 mmHg 36%
    16:00 +42°C° 0 mm 5 mps 746 mmHg 37%
    17:00 +41°C° 0 mm 5 mps 746 mmHg 38%
    18:00 +41°C° 0 mm 5 mps 745 mmHg 39%
    19:00 +37°C° 4.3 mm 5 mps 746 mmHg 46%
    20:00 +34°C° 4.3 mm 5 mps 747 mmHg 53%
    21:00 +30°C° 4.3 mm 5 mps 747 mmHg 60%
    22:00 +30°C° 0 mm 4 mps 747 mmHg 58%
    23:00 +31°C° 0 mm 3 mps 748 mmHg 56%

    31 May, Sunday

    Time Temperature Precipitation Wind Pressure Humidity
    00:00 +31°C° 0 mm 2 mps 748 mmHg 54%
    01:00 +31°C° 0 mm 3 mps 748 mmHg 57%
    02:00 +30°C° 0 mm 3 mps 748 mmHg 61%
    03:00 +30°C° 0 mm 4 mps 747 mmHg 64%
    04:00 +30°C° 0 mm 4 mps 748 mmHg 66%
    05:00 +29°C° 0 mm 4 mps 748 mmHg 68%
    06:00 +29°C° 0 mm 4 mps 748 mmHg 70%
    07:00 +30°C° 0 mm 4 mps 749 mmHg 66%
    08:00 +33°C° 0 mm 4 mps 749 mmHg 61%
    09:00 +34°C° 0 mm 4 mps 749 mmHg 57%
    10:00 +36°C° 0 mm 4 mps 749 mmHg 52%
    11:00 +37°C° 0 mm 4 mps 749 mmHg 47%
    12:00 +40°C° 0 mm 4 mps 748 mmHg 42%
    13:00 +40°C° 0 mm 3 mps 748 mmHg 38%
    14:00 +42°C° 0 mm 3 mps 747 mmHg 34%
    15:00 +42°C° 0 mm 2 mps 746 mmHg 31%
    16:00 +42°C° 0 mm 2 mps 746 mmHg 30%
    17:00 +42°C° 0 mm 2 mps 745 mmHg 28%
    18:00 +42°C° 0 mm 2 mps 745 mmHg 27%
    19:00 +41°C° 0 mm 2 mps 745 mmHg 30%
    20:00 +40°C° 0 mm 2 mps 745 mmHg 32%
    21:00 +39°C° 0 mm 2 mps 745 mmHg 35%
    22:00 +38°C° 0 mm 3 mps 746 mmHg 39%
    23:00 +38°C° 0 mm 3 mps 746 mmHg 43%

    1 June, Monday

    Time Temperature Precipitation Wind Pressure Humidity
    00:00 +37°C° 0 mm 4 mps 746 mmHg 47%
    01:00 +36°C° 0 mm 4 mps 746 mmHg 53%
    02:00 +35°C° 0 mm 4 mps 746 mmHg 59%
    03:00 +34°C° 0 mm 5 mps 746 mmHg 65%
    04:00 +33°C° 0 mm 5 mps 746 mmHg 67%
    05:00 +33°C° 0 mm 4 mps 746 mmHg 69%
    06:00 +33°C° 0 mm 4 mps 746 mmHg 70%
    07:00 +34°C° 0 mm 4 mps 746 mmHg 65%
    08:00 +36°C° 0 mm 4 mps 747 mmHg 59%
    09:00 +37°C° 0 mm 4 mps 747 mmHg 53%
    10:00 +40°C° 0 mm 4 mps 747 mmHg 47%
    11:00 +40°C° 0 mm 3 mps 747 mmHg 41%
    12:00 +43°C° 0 mm 3 mps 747 mmHg 35%
    13:00 +44°C° 0 mm 3 mps 746 mmHg 31%
    14:00 +46°C° 0 mm 3 mps 745 mmHg 26%
    15:00 +47°C° 0 mm 3 mps 744 mmHg 22%
    16:00 +46°C° 0 mm 3 mps 744 mmHg 22%
    17:00 +46°C° 0 mm 3 mps 743 mmHg 22%
    18:00 +45°C° 0 mm 3 mps 743 mmHg 22%
    19:00 +44°C° 0 mm 3 mps 743 mmHg 24%
    20:00 +43°C° 0 mm 3 mps 743 mmHg 25%
    21:00 +42°C° 0 mm 3 mps 744 mmHg 27%
    22:00 +40°C° 0 mm 3 mps 744 mmHg 32%
    23:00 +39°C° 0 mm 3 mps 744 mmHg 37%

    2 June, Tuesday

    Time Temperature Precipitation Wind Pressure Humidity
    00:00 +38°C° 0 mm 3 mps 744 mmHg 42%
    01:00 +37°C° 0 mm 4 mps 744 mmHg 48%
    02:00 +37°C° 0 mm 4 mps 744 mmHg 54%
    03:00 +36°C° 0 mm 4 mps 744 mmHg 60%
    04:00 +35°C° 0 mm 4 mps 744 mmHg 64%
    05:00 +35°C° 0 mm 4 mps 744 mmHg 68%
    06:00 +34°C° 0 mm 3 mps 744 mmHg 71%
    07:00 +35°C° 0 mm 3 mps 745 mmHg 68%
    08:00 +36°C° 0 mm 3 mps 745 mmHg 64%
    09:00 +37°C° 0 mm 3 mps 746 mmHg 60%
    10:00 +39°C° 0 mm 3 mps 746 mmHg 50%
    11:00 +42°C° 0 mm 3 mps 746 mmHg 40%
    12:00 +45°C° 0 mm 3 mps 746 mmHg 29%
    13:00 +45°C° 0 mm 3 mps 745 mmHg 27%
    14:00 +45°C° 0 mm 4 mps 744 mmHg 24%
    15:00 +47°C° 0 mm 5 mps 743 mmHg 21%
    16:00 +47°C° 0 mm 6 mps 743 mmHg 19%
    17:00 +48°C° 0 mm 8 mps 742 mmHg 17%
    18:00 +48°C° 0 mm 9 mps 742 mmHg 15%
    19:00 +46°C° 0 mm 8 mps 742 mmHg 17%
    20:00 +44°C° 0 mm 7 mps 743 mmHg 19%
    21:00 +42°C° 0 mm 6 mps 743 mmHg 20%
    22:00 +42°C° 0 mm 5 mps 743 mmHg 22%
    23:00 +41°C° 0 mm 5 mps 744 mmHg 23%
    Show more